Time,TemperatureF,DewpointF,PressureIn,WindDirection,WindDirectionDegrees,WindSpeedMPH,WindSpeedGustMPH,Humidity,HourlyPrecipIn,Conditions,Clouds,dailyrainin,SoftwareType,DateUTC
2013-02-07 00:02:00,22.6,15.6,29.95,NE,45,4.0,5.0,74,0.00,,,0.00,meteohub,2013-02-07 06:02:00,
2013-02-07 00:07:00,22.6,15.6,29.95,NE,45,4.0,5.0,74,0.00,,,0.00,meteohub,2013-02-07 06:07:00,
2013-02-07 00:12:00,22.5,15.4,29.95,East,90,4.0,5.0,74,0.00,,,0.00,meteohub,2013-02-07 06:12:00,
2013-02-07 00:17:00,22.6,15.6,29.95,East,90,4.0,5.0,74,0.00,,,0.00,meteohub,2013-02-07 06:17:00,
2013-02-07 00:22:00,22.5,15.4,29.96,East,90,4.0,5.0,74,0.00,,,0.00,meteohub,2013-02-07 06:22:00,
2013-02-07 00:27:00,22.5,15.4,29.96,East,90,2.0,5.0,74,0.00,,,0.00,meteohub,2013-02-07 06:27:00,
2013-02-07 00:32:00,22.3,15.3,29.95,East,90,4.0,5.0,74,0.00,,,0.00,meteohub,2013-02-07 06:32:00,
2013-02-07 00:37:00,22.3,15.6,29.95,NNE,23,4.0,4.0,75,0.00,,,0.00,meteohub,2013-02-07 06:37:00,
2013-02-07 00:42:00,22.3,15.6,29.96,North,0,6.0,6.0,75,0.00,,,0.00,meteohub,2013-02-07 06:42:00,
2013-02-07 00:47:00,22.5,15.8,29.96,NE,45,6.0,6.0,75,0.00,,,0.00,meteohub,2013-02-07 06:47:00,
2013-02-07 00:52:00,22.6,16.2,29.96,North,0,8.0,8.0,76,0.00,,,0.00,meteohub,2013-02-07 06:52:00,
2013-02-07 00:57:00,22.8,16.3,29.96,North,0,7.0,8.0,76,0.00,,,0.00,meteohub,2013-02-07 06:57:00,
2013-02-07 01:02:00,23.0,16.3,29.96,NNW,338,6.0,8.0,75,0.00,,,0.00,meteohub,2013-02-07 07:02:00,
2013-02-07 01:07:00,23.2,16.5,29.97,NE,45,4.0,8.0,75,0.00,,,0.00,meteohub,2013-02-07 07:07:00,
2013-02-07 01:12:00,23.5,17.1,29.96,NE,45,8.0,8.0,76,0.00,,,0.00,meteohub,2013-02-07 07:12:00,
2013-02-07 01:17:00,23.7,17.2,29.97,NE,45,3.0,8.0,76,0.00,,,0.00,meteohub,2013-02-07 07:17:00,
2013-02-07 01:22:00,23.9,17.4,29.97,East,90,6.0,8.0,76,0.00,,,0.00,meteohub,2013-02-07 07:22:00,
2013-02-07 01:27:00,24.1,18.0,29.96,NE,45,2.0,8.0,77,0.00,,,0.00,meteohub,2013-02-07 07:27:00,
2013-02-07 01:32:00,24.3,18.1,29.96,NE,45,4.0,7.0,77,0.00,,,0.00,meteohub,2013-02-07 07:32:00,
2013-02-07 01:37:00,24.3,18.1,29.96,NE,45,5.0,8.0,77,0.00,,,0.00,meteohub,2013-02-07 07:37:00,
2013-02-07 01:42:00,24.4,18.3,29.96,NE,45,4.0,8.0,77,0.00,,,0.00,meteohub,2013-02-07 07:42:00,
2013-02-07 01:47:00,24.4,18.3,29.96,NE,45,3.0,8.0,77,0.00,,,0.00,meteohub,2013-02-07 07:47:00,
2013-02-07 01:52:00,24.6,18.5,29.96,East,90,3.0,7.0,77,0.00,,,0.00,meteohub,2013-02-07 07:52:00,
2013-02-07 01:57:00,24.6,18.5,29.96,NE,45,3.0,7.0,77,0.00,,,0.00,meteohub,2013-02-07 07:57:00,
2013-02-07 02:02:00,24.6,18.5,29.96,NE,45,4.0,7.0,77,0.00,,,0.00,meteohub,2013-02-07 08:02:00,
2013-02-07 02:07:00,24.8,18.3,29.97,NE,45,4.0,5.0,76,0.00,,,0.00,meteohub,2013-02-07 08:07:00,
2013-02-07 02:13:00,24.8,18.3,29.97,NE,45,5.0,5.0,76,0.00,,,0.00,meteohub,2013-02-07 08:13:00,
2013-02-07 02:18:00,24.8,18.0,29.98,NE,45,7.0,7.0,75,0.00,,,0.00,meteohub,2013-02-07 08:18:00,
2013-02-07 02:23:00,24.8,18.0,29.98,North,0,4.0,7.0,75,0.00,,,0.00,meteohub,2013-02-07 08:23:00,
2013-02-07 02:28:00,24.8,18.0,29.98,North,0,8.0,8.0,75,0.00,,,0.00,meteohub,2013-02-07 08:28:00,
2013-02-07 02:33:00,24.8,18.0,29.98,NNE,23,6.0,8.0,75,0.00,,,0.00,meteohub,2013-02-07 08:33:00,
2013-02-07 02:38:00,24.8,18.0,29.98,NNE,23,8.0,8.0,75,0.00,,,0.00,meteohub,2013-02-07 08:38:00,
2013-02-07 02:43:00,25.0,18.1,29.98,North,0,9.0,9.0,75,0.00,,,0.00,meteohub,2013-02-07 08:43:00,
2013-02-07 02:48:00,25.0,18.1,29.97,NW,315,5.0,9.0,75,0.00,,,0.00,meteohub,2013-02-07 08:48:00,
2013-02-07 02:53:00,25.0,18.1,29.97,NE,45,8.0,9.0,75,0.00,,,0.00,meteohub,2013-02-07 08:53:00,
2013-02-07 02:58:00,25.0,18.1,29.97,NE,45,5.0,9.0,75,0.00,,,0.00,meteohub,2013-02-07 08:58:00,
2013-02-07 03:03:00,25.0,18.1,29.97,NE,45,7.0,8.0,75,0.00,,,0.00,meteohub,2013-02-07 09:03:00,
2013-02-07 03:08:00,25.0,18.1,29.97,North,0,7.0,9.0,75,0.00,,,0.00,meteohub,2013-02-07 09:08:00,
2013-02-07 03:13:00,25.0,18.1,29.97,NNE,23,6.0,9.0,75,0.00,,,0.00,meteohub,2013-02-07 09:13:00,
2013-02-07 03:18:00,25.0,18.1,29.97,East,90,6.0,9.0,75,0.00,,,0.00,meteohub,2013-02-07 09:18:00,
2013-02-07 03:23:00,25.0,18.1,29.97,NE,45,7.0,8.0,75,0.00,,,0.00,meteohub,2013-02-07 09:23:00,
2013-02-07 03:28:00,25.0,18.1,29.97,North,0,5.0,8.0,75,0.00,,,0.00,meteohub,2013-02-07 09:28:00,
2013-02-07 03:33:00,25.0,18.0,29.98,NNE,23,6.0,8.0,74,0.00,,,0.00,meteohub,2013-02-07 09:33:00,
2013-02-07 03:38:00,25.0,18.0,29.98,NE,45,6.0,8.0,74,0.00,,,0.00,meteohub,2013-02-07 09:38:00,
2013-02-07 03:43:00,25.0,18.0,29.97,NE,45,6.0,8.0,74,0.00,,,0.00,meteohub,2013-02-07 09:43:00,
2013-02-07 03:48:00,25.0,18.0,29.97,NE,45,4.0,8.0,74,0.00,,,0.00,meteohub,2013-02-07 09:48:00,
2013-02-07 03:53:00,25.0,18.0,29.98,NE,45,4.0,8.0,74,0.00,,,0.00,meteohub,2013-02-07 09:53:00,
2013-02-07 03:58:00,25.0,18.0,29.98,NNE,23,5.0,6.0,74,0.00,,,0.00,meteohub,2013-02-07 09:58:00,
2013-02-07 04:03:00,25.0,18.0,29.97,North,0,5.0,6.0,74,0.00,,,0.00,meteohub,2013-02-07 10:03:00,
2013-02-07 04:08:00,25.0,18.0,29.98,North,0,4.0,5.0,74,0.00,,,0.00,meteohub,2013-02-07 10:08:00,
2013-02-07 04:13:00,25.0,18.0,29.98,North,0,4.0,5.0,74,0.00,,,0.00,meteohub,2013-02-07 10:13:00,
2013-02-07 04:18:00,25.0,18.0,29.98,North,0,5.0,5.0,74,0.00,,,0.00,meteohub,2013-02-07 10:18:00,
2013-02-07 04:23:00,25.0,18.0,29.98,North,0,7.0,7.0,74,0.00,,,0.00,meteohub,2013-02-07 10:23:00,
2013-02-07 04:28:00,25.0,18.0,29.98,NE,45,4.0,7.0,74,0.00,,,0.00,meteohub,2013-02-07 10:28:00,
2013-02-07 04:33:00,25.0,18.0,29.98,North,0,8.0,8.0,74,0.00,,,0.00,meteohub,2013-02-07 10:33:00,
2013-02-07 04:38:00,25.0,18.0,29.99,North,0,10.0,10.0,74,0.00,,,0.00,meteohub,2013-02-07 10:38:00,
2013-02-07 04:42:00,24.8,17.8,29.98,NNE,23,7.0,10.0,74,0.00,,,0.00,meteohub,2013-02-07 10:42:00,
2013-02-07 04:57:00,24.8,17.8,29.99,SW,225,4.0,9.0,74,0.00,,,0.00,meteohub,2013-02-07 10:57:00,
2013-02-07 05:02:00,24.8,17.8,29.99,NE,45,4.0,9.0,74,0.00,,,0.00,meteohub,2013-02-07 11:02:00,
2013-02-07 05:07:00,24.8,17.8,29.99,North,0,6.0,8.0,74,0.00,,,0.00,meteohub,2013-02-07 11:07:00,
2013-02-07 05:12:00,24.6,17.8,29.99,NNE,23,7.0,8.0,75,0.00,,,0.00,meteohub,2013-02-07 11:12:00,
2013-02-07 05:17:00,24.6,17.8,29.99,North,0,4.0,7.0,75,0.00,,,0.00,meteohub,2013-02-07 11:17:00,
2013-02-07 05:22:00,24.6,17.8,29.99,North,0,5.0,8.0,75,0.00,,,0.00,meteohub,2013-02-07 11:22:00,
2013-02-07 05:27:00,24.4,17.6,29.99,North,0,5.0,8.0,75,0.00,,,0.00,meteohub,2013-02-07 11:27:00,
2013-02-07 05:32:00,24.4,17.6,30.00,NNE,23,6.0,8.0,75,0.00,,,0.00,meteohub,2013-02-07 11:32:00,
2013-02-07 05:37:00,24.4,17.6,29.99,NE,45,6.0,7.0,75,0.00,,,0.00,meteohub,2013-02-07 11:37:00,
2013-02-07 05:42:00,24.3,17.8,29.99,NNE,23,6.0,7.0,76,0.00,,,0.00,meteohub,2013-02-07 11:42:00,
2013-02-07 05:47:00,24.3,17.8,29.99,North,0,5.0,7.0,76,0.00,,,0.00,meteohub,2013-02-07 11:47:00,
2013-02-07 05:52:00,24.3,17.8,29.99,North,0,7.0,7.0,76,0.00,,,0.00,meteohub,2013-02-07 11:52:00,
2013-02-07 05:57:00,24.3,18.1,29.99,NE,45,6.0,8.0,77,0.00,,,0.00,meteohub,2013-02-07 11:57:00,
2013-02-07 06:02:00,24.1,18.0,30.00,North,0,3.0,8.0,77,0.00,,,0.00,meteohub,2013-02-07 12:02:00,
2013-02-07 06:08:00,24.1,18.0,30.00,NE,45,8.0,8.0,77,0.00,,,0.00,meteohub,2013-02-07 12:08:00,
2013-02-07 06:13:00,23.9,18.0,29.99,NNE,23,6.0,8.0,78,0.00,,,0.00,meteohub,2013-02-07 12:13:00,
2013-02-07 06:18:00,23.9,18.0,29.99,NE,45,5.0,8.0,78,0.00,,,0.00,meteohub,2013-02-07 12:18:00,
2013-02-07 06:23:00,23.7,18.1,30.00,NNE,23,7.0,8.0,79,0.00,,,0.00,meteohub,2013-02-07 12:23:00,
2013-02-07 06:28:00,23.7,18.1,30.00,NNE,23,7.0,7.0,79,0.00,,,0.00,meteohub,2013-02-07 12:28:00,
2013-02-07 06:33:00,23.7,18.5,30.00,NNE,23,8.0,8.0,80,0.00,,,0.00,meteohub,2013-02-07 12:33:00,
2013-02-07 06:38:00,23.5,18.3,30.00,NNW,338,4.0,8.0,80,0.00,,,0.00,meteohub,2013-02-07 12:38:00,
2013-02-07 06:43:00,23.5,18.3,30.00,NNE,23,4.0,8.0,80,0.00,,,0.00,meteohub,2013-02-07 12:43:00,
2013-02-07 06:48:00,23.5,18.3,30.00,North,0,4.0,8.0,80,0.00,,,0.00,meteohub,2013-02-07 12:48:00,
2013-02-07 06:53:00,23.5,18.3,30.00,North,0,4.0,6.0,80,0.00,,,0.00,meteohub,2013-02-07 12:53:00,
2013-02-07 06:58:00,23.5,18.5,30.00,NW,315,7.0,8.0,81,0.00,,,0.00,meteohub,2013-02-07 12:58:00,
2013-02-07 07:03:00,23.5,18.5,30.00,NE,45,6.0,8.0,81,0.00,,,0.00,meteohub,2013-02-07 13:03:00,
2013-02-07 07:08:00,23.5,18.5,30.00,North,0,5.0,8.0,81,0.00,,,0.00,meteohub,2013-02-07 13:08:00,
2013-02-07 07:13:00,23.5,18.9,30.00,NE,45,6.0,8.0,82,0.00,,,0.00,meteohub,2013-02-07 13:13:00,
2013-02-07 07:18:00,23.5,18.9,30.00,North,0,5.0,8.0,82,0.00,,,0.00,meteohub,2013-02-07 13:18:00,
2013-02-07 07:23:00,23.5,18.9,30.00,North,0,8.0,8.0,82,0.00,,,0.00,meteohub,2013-02-07 13:23:00,
2013-02-07 07:28:00,23.5,18.9,30.00,NNE,23,6.0,8.0,82,0.00,,,0.00,meteohub,2013-02-07 13:28:00,
2013-02-07 07:33:00,23.5,18.9,30.00,NE,45,5.0,8.0,82,0.00,,,0.00,meteohub,2013-02-07 13:33:00,
2013-02-07 07:38:00,23.5,18.9,30.01,North,0,5.0,8.0,82,0.00,,,0.00,meteohub,2013-02-07 13:38:00,
2013-02-07 07:43:00,23.5,19.2,30.01,North,0,4.0,7.0,83,0.00,,,0.00,meteohub,2013-02-07 13:43:00,
2013-02-07 07:48:00,23.5,19.2,30.01,East,90,4.0,7.0,83,0.00,,,0.00,meteohub,2013-02-07 13:48:00,
2013-02-07 07:53:00,23.5,19.2,30.01,North,0,5.0,7.0,83,0.00,,,0.00,meteohub,2013-02-07 13:53:00,
2013-02-07 07:58:00,23.5,19.2,30.02,North,0,4.0,5.0,83,0.00,,,0.00,meteohub,2013-02-07 13:58:00,
2013-02-07 08:03:00,23.5,19.2,30.03,NE,45,4.0,6.0,83,0.00,,,0.00,meteohub,2013-02-07 14:03:00,
2013-02-07 08:08:00,23.5,19.2,30.03,NE,45,4.0,6.0,83,0.00,,,0.00,meteohub,2013-02-07 14:08:00,
2013-02-07 08:13:00,23.5,19.2,30.03,NNE,23,4.0,6.0,83,0.00,,,0.00,meteohub,2013-02-07 14:13:00,
2013-02-07 08:18:00,23.5,19.2,30.04,North,0,6.0,6.0,83,0.00,,,0.00,meteohub,2013-02-07 14:18:00,
2013-02-07 08:23:00,23.5,19.2,30.04,North,0,5.0,7.0,83,0.00,,,0.00,meteohub,2013-02-07 14:23:00,
2013-02-07 08:28:00,23.5,19.2,30.04,NW,315,5.0,7.0,83,0.00,,,0.00,meteohub,2013-02-07 14:28:00,
2013-02-07 08:33:00,23.5,19.2,30.04,NW,315,4.0,7.0,83,0.00,,,0.00,meteohub,2013-02-07 14:33:00,
2013-02-07 08:38:00,23.5,19.2,30.04,NNE,23,8.0,8.0,83,0.00,,,0.00,meteohub,2013-02-07 14:38:00,
2013-02-07 08:43:00,23.5,18.9,30.05,North,0,4.0,8.0,82,0.00,,,0.00,meteohub,2013-02-07 14:43:00,
2013-02-07 08:48:00,23.5,18.9,30.05,North,0,7.0,8.0,82,0.00,,,0.00,meteohub,2013-02-07 14:48:00,
2013-02-07 08:53:00,23.5,18.9,30.05,NNE,23,4.0,8.0,82,0.00,,,0.00,meteohub,2013-02-07 14:53:00,
2013-02-07 08:58:00,23.5,18.9,30.05,NE,45,6.0,8.0,82,0.00,,,0.00,meteohub,2013-02-07 14:58:00,
2013-02-07 09:03:00,23.5,18.9,30.05,NNE,23,4.0,7.0,82,0.00,,,0.00,meteohub,2013-02-07 15:03:00,
2013-02-07 09:08:00,23.5,18.9,30.06,NNE,23,4.0,7.0,82,0.00,,,0.00,meteohub,2013-02-07 15:08:00,
2013-02-07 09:13:00,23.5,18.9,30.06,NE,45,6.0,6.0,82,0.00,,,0.00,meteohub,2013-02-07 15:13:00,
2013-02-07 09:18:00,23.5,18.9,30.05,North,0,8.0,8.0,82,0.00,,,0.00,meteohub,2013-02-07 15:18:00,
2013-02-07 09:23:00,23.4,18.7,30.05,North,0,6.0,8.0,82,0.00,,,0.00,meteohub,2013-02-07 15:23:00,
2013-02-07 09:28:00,23.4,18.7,30.05,NNE,23,7.0,8.0,82,0.00,,,0.00,meteohub,2013-02-07 15:28:00,
2013-02-07 09:33:00,23.4,18.7,30.06,NE,45,5.0,8.0,82,0.00,,,0.00,meteohub,2013-02-07 15:33:00,
2013-02-07 09:38:00,23.4,18.3,30.06,NE,45,8.0,8.0,81,0.00,,,0.00,meteohub,2013-02-07 15:38:00,
2013-02-07 09:43:00,23.4,18.3,30.06,NE,45,4.0,8.0,81,0.00,,,0.00,meteohub,2013-02-07 15:43:00,
2013-02-07 09:48:00,23.4,18.3,30.06,NE,45,5.0,8.0,81,0.00,,,0.00,meteohub,2013-02-07 15:48:00,
2013-02-07 09:53:00,23.4,18.3,30.06,North,0,8.0,8.0,81,0.00,,,0.00,meteohub,2013-02-07 15:53:00,
2013-02-07 09:58:00,23.5,18.5,30.07,NE,45,4.0,8.0,81,0.00,,,0.00,meteohub,2013-02-07 15:58:00,
2013-02-07 10:03:00,23.5,18.5,30.06,NNE,23,5.0,8.0,81,0.00,,,0.00,meteohub,2013-02-07 16:03:00,
2013-02-07 10:08:00,23.5,18.5,30.07,North,0,5.0,8.0,81,0.00,,,0.00,meteohub,2013-02-07 16:08:00,
2013-02-07 10:13:00,23.5,18.5,30.06,NNE,23,6.0,8.0,81,0.00,,,0.00,meteohub,2013-02-07 16:13:00,
2013-02-07 10:18:00,23.5,18.5,30.07,NNE,23,6.0,6.0,81,0.00,,,0.00,meteohub,2013-02-07 16:18:00,
2013-02-07 10:23:00,23.5,18.5,30.06,North,0,5.0,7.0,81,0.00,,,0.00,meteohub,2013-02-07 16:23:00,
2013-02-07 10:28:00,23.5,18.5,30.07,North,0,5.0,7.0,81,0.00,,,0.00,meteohub,2013-02-07 16:28:00,
2013-02-07 10:33:00,23.5,18.5,30.07,East,90,5.0,6.0,81,0.00,,,0.00,meteohub,2013-02-07 16:33:00,
2013-02-07 10:38:00,23.5,18.5,30.07,North,0,4.0,6.0,81,0.00,,,0.00,meteohub,2013-02-07 16:38:00,
2013-02-07 10:43:00,23.7,18.7,30.07,NE,45,8.0,8.0,81,0.00,,,0.00,meteohub,2013-02-07 16:43:00,
2013-02-07 10:48:00,23.7,18.7,30.07,North,0,4.0,6.0,81,0.00,,,0.00,meteohub,2013-02-07 16:48:00,
2013-02-07 10:53:00,23.7,18.7,30.07,NE,45,8.0,8.0,81,0.00,,,0.00,meteohub,2013-02-07 16:53:00,
2013-02-07 10:58:00,23.7,18.5,30.07,North,0,4.0,8.0,80,0.00,,,0.00,meteohub,2013-02-07 16:58:00,
2013-02-07 11:04:00,23.7,18.5,30.07,North,0,3.0,8.0,80,0.00,,,0.00,meteohub,2013-02-07 17:04:00,
2013-02-07 11:09:00,23.7,18.5,30.07,North,0,8.0,8.0,80,0.00,,,0.00,meteohub,2013-02-07 17:09:00,
2013-02-07 11:14:00,23.7,18.5,30.07,NNW,338,6.0,8.0,80,0.00,,,0.00,meteohub,2013-02-07 17:14:00,
2013-02-07 11:19:00,24.1,18.9,30.06,NE,45,4.0,8.0,80,0.00,,,0.00,meteohub,2013-02-07 17:19:00,
2013-02-07 11:24:00,24.1,18.9,30.07,North,0,4.0,8.0,80,0.00,,,0.00,meteohub,2013-02-07 17:24:00,
2013-02-07 11:29:00,24.3,19.0,30.07,NNW,338,5.0,6.0,80,0.00,,,0.00,meteohub,2013-02-07 17:29:00,
2013-02-07 11:34:00,24.3,19.0,30.07,North,0,5.0,6.0,80,0.00,,,0.00,meteohub,2013-02-07 17:34:00,
2013-02-07 11:39:00,24.3,18.7,30.07,NE,45,4.0,6.0,79,0.00,,,0.00,meteohub,2013-02-07 17:39:00,
2013-02-07 11:44:00,24.3,18.3,30.08,North,0,7.0,7.0,78,0.00,,,0.00,meteohub,2013-02-07 17:44:00,
2013-02-07 11:49:00,24.4,18.3,30.08,NW,315,3.0,7.0,77,0.00,,,0.00,meteohub,2013-02-07 17:49:00,
2013-02-07 11:54:00,24.4,18.3,30.08,NE,45,6.0,8.0,77,0.00,,,0.00,meteohub,2013-02-07 17:54:00,
2013-02-07 11:59:00,24.6,18.1,30.08,North,0,8.0,8.0,76,0.00,,,0.00,meteohub,2013-02-07 17:59:00,
2013-02-07 12:04:00,24.6,18.1,30.08,North,0,8.0,8.0,76,0.00,,,0.00,meteohub,2013-02-07 18:04:00,
2013-02-07 12:09:00,24.4,17.6,30.08,NE,45,6.0,8.0,75,0.00,,,0.00,meteohub,2013-02-07 18:09:00,
2013-02-07 12:14:00,24.6,17.8,30.08,SW,225,8.0,8.0,75,0.00,,,0.00,meteohub,2013-02-07 18:14:00,
2013-02-07 12:19:00,24.8,17.4,30.07,NW,315,6.0,8.0,73,0.00,,,0.00,meteohub,2013-02-07 18:19:00,
2013-02-07 12:24:00,24.8,17.4,30.07,North,0,7.0,8.0,73,0.00,,,0.00,meteohub,2013-02-07 18:24:00,
2013-02-07 12:29:00,24.8,17.1,30.07,NE,45,9.0,9.0,72,0.00,,,0.00,meteohub,2013-02-07 18:29:00,
2013-02-07 12:34:00,24.6,17.2,30.07,NE,45,8.0,9.0,73,0.00,,,0.00,meteohub,2013-02-07 18:34:00,
2013-02-07 12:39:00,24.8,17.1,30.07,NW,315,5.0,9.0,72,0.00,,,0.00,meteohub,2013-02-07 18:39:00,
2013-02-07 12:44:00,24.8,16.7,30.07,NE,45,11.0,11.0,71,0.00,,,0.00,meteohub,2013-02-07 18:44:00,
2013-02-07 12:49:00,24.8,16.7,30.07,NE,45,8.0,11.0,71,0.00,,,0.00,meteohub,2013-02-07 18:49:00,
2013-02-07 12:54:00,24.8,16.7,30.07,North,0,11.0,11.0,71,0.00,,,0.00,meteohub,2013-02-07 18:54:00,
2013-02-07 12:59:00,24.6,17.2,30.07,North,0,9.0,11.0,73,0.00,,,0.00,meteohub,2013-02-07 18:59:00,
2013-02-07 13:04:00,24.8,17.1,30.07,NE,45,4.0,11.0,72,0.00,,,0.00,meteohub,2013-02-07 19:04:00,
2013-02-07 13:09:00,24.8,17.1,30.07,NNE,23,8.0,11.0,72,0.00,,,0.00,meteohub,2013-02-07 19:09:00,
2013-02-07 13:14:00,24.6,17.6,30.06,NNW,338,6.0,13.0,74,0.00,,,0.00,meteohub,2013-02-07 19:14:00,
2013-02-07 13:19:00,24.6,17.6,30.07,NNE,23,5.0,13.0,74,0.00,,,0.00,meteohub,2013-02-07 19:19:00,
2013-02-07 13:24:00,24.6,17.6,30.06,NW,315,10.0,13.0,74,0.00,,,0.00,meteohub,2013-02-07 19:24:00,
2013-02-07 13:29:00,24.6,17.8,30.06,NW,315,6.0,10.0,75,0.00,,,0.00,meteohub,2013-02-07 19:29:00,
2013-02-07 13:34:00,24.8,17.8,30.06,NNE,23,9.0,10.0,74,0.00,,,0.00,meteohub,2013-02-07 19:34:00,
2013-02-07 13:39:00,24.6,18.1,30.06,NNE,23,10.0,10.0,76,0.00,,,0.00,meteohub,2013-02-07 19:39:00,
2013-02-07 13:44:00,24.6,18.1,30.06,NE,45,9.0,11.0,76,0.00,,,0.00,meteohub,2013-02-07 19:44:00,
2013-02-07 13:49:00,24.6,18.5,30.06,North,0,7.0,11.0,77,0.00,,,0.00,meteohub,2013-02-07 19:49:00,
2013-02-07 13:54:00,24.6,18.5,30.06,NNE,23,8.0,11.0,77,0.00,,,0.00,meteohub,2013-02-07 19:54:00,
2013-02-07 13:59:00,24.6,18.5,30.06,NNE,23,10.0,10.0,77,0.00,,,0.00,meteohub,2013-02-07 19:59:00,
2013-02-07 14:04:00,24.6,18.5,30.06,NNE,23,10.0,10.0,77,0.00,,,0.00,meteohub,2013-02-07 20:04:00,
2013-02-07 14:09:00,24.6,18.5,30.06,NNE,23,10.0,10.0,77,0.00,,,0.00,meteohub,2013-02-07 20:09:00,
2013-02-07 14:17:00,11.8,-6.3,29.90,West,270,3.0,10.0,43,0.00,,,0.00,meteohub,2013-02-07 20:17:00,
2013-02-07 14:22:00,25.0,18.5,30.06,North,0,8.0,10.0,76,0.00,,,0.00,meteohub,2013-02-07 20:22:00,
2013-02-07 14:27:00,24.8,18.0,30.06,North,0,9.0,9.0,75,0.00,,,0.00,meteohub,2013-02-07 20:27:00,
2013-02-07 14:32:00,24.8,17.8,30.06,North,0,5.0,16.0,74,0.00,,,0.00,meteohub,2013-02-07 20:32:00,
2013-02-07 14:37:00,24.8,17.8,30.06,NE,45,7.0,16.0,74,0.00,,,0.00,meteohub,2013-02-07 20:37:00,
2013-02-07 14:42:00,25.0,17.6,30.06,NNE,23,8.0,16.0,73,0.00,,,0.00,meteohub,2013-02-07 20:42:00,
2013-02-07 14:47:00,25.2,17.4,30.06,NE,45,8.0,11.0,72,0.00,,,0.00,meteohub,2013-02-07 20:47:00,
2013-02-07 14:52:00,25.2,17.1,30.06,NW,315,6.0,11.0,71,0.00,,,0.00,meteohub,2013-02-07 20:52:00,
2013-02-07 14:57:00,25.3,17.2,30.07,NE,45,4.0,11.0,71,0.00,,,0.00,meteohub,2013-02-07 20:57:00,
2013-02-07 15:02:00,25.3,16.9,30.07,North,0,11.0,11.0,70,0.00,,,0.00,meteohub,2013-02-07 21:02:00,
2013-02-07 15:07:00,25.3,16.9,30.07,NE,45,9.0,11.0,70,0.00,,,0.00,meteohub,2013-02-07 21:07:00,
2013-02-07 15:12:00,25.3,16.5,30.07,NW,315,6.0,11.0,69,0.00,,,0.00,meteohub,2013-02-07 21:12:00,
2013-02-07 15:17:00,25.5,16.7,30.08,North,0,4.0,11.0,69,0.00,,,0.00,meteohub,2013-02-07 21:17:00,
2013-02-07 15:22:00,25.5,16.7,30.08,NE,45,6.0,9.0,69,0.00,,,0.00,meteohub,2013-02-07 21:22:00,
2013-02-07 15:27:00,25.5,16.5,30.08,NNW,338,6.0,11.0,68,0.00,,,0.00,meteohub,2013-02-07 21:27:00,
2013-02-07 15:32:00,25.5,16.5,30.08,North,0,7.0,12.0,68,0.00,,,0.00,meteohub,2013-02-07 21:32:00,
2013-02-07 15:37:00,25.7,16.3,30.08,NE,45,6.0,12.0,67,0.00,,,0.00,meteohub,2013-02-07 21:37:00,
2013-02-07 15:42:00,25.7,16.3,30.08,NE,45,7.0,8.0,67,0.00,,,0.00,meteohub,2013-02-07 21:42:00,
2013-02-07 15:47:00,25.7,16.3,30.09,North,0,5.0,8.0,67,0.00,,,0.00,meteohub,2013-02-07 21:47:00,
2013-02-07 15:52:00,25.9,16.5,30.09,North,0,6.0,7.0,67,0.00,,,0.00,meteohub,2013-02-07 21:52:00,
2013-02-07 15:57:00,26.1,16.3,30.09,NNE,23,4.0,7.0,66,0.00,,,0.00,meteohub,2013-02-07 21:57:00,
2013-02-07 16:02:00,26.1,16.3,30.09,North,0,4.0,8.0,66,0.00,,,0.00,meteohub,2013-02-07 22:02:00,
2013-02-07 16:07:00,26.1,16.3,30.09,North,0,4.0,8.0,66,0.00,,,0.00,meteohub,2013-02-07 22:07:00,
2013-02-07 16:12:00,26.1,16.0,30.10,North,0,5.0,8.0,65,0.00,,,0.00,meteohub,2013-02-07 22:12:00,
2013-02-07 16:17:00,26.1,16.0,30.10,North,0,4.0,5.0,65,0.00,,,0.00,meteohub,2013-02-07 22:17:00,
2013-02-07 16:22:00,26.2,16.2,30.10,North,0,6.0,6.0,65,0.00,,,0.00,meteohub,2013-02-07 22:22:00,
2013-02-07 16:28:00,26.2,16.2,30.11,North,0,10.0,10.0,65,0.00,,,0.00,meteohub,2013-02-07 22:28:00,
2013-02-07 16:33:00,26.2,15.8,30.10,North,0,5.0,10.0,64,0.00,,,0.00,meteohub,2013-02-07 22:33:00,
2013-02-07 16:38:00,26.2,15.8,30.11,NW,315,4.0,10.0,64,0.00,,,0.00,meteohub,2013-02-07 22:38:00,
2013-02-07 16:43:00,26.2,15.8,30.11,NNW,338,5.0,10.0,64,0.00,,,0.00,meteohub,2013-02-07 22:43:00,
2013-02-07 16:48:00,26.2,15.8,30.11,North,0,5.0,10.0,64,0.00,,,0.00,meteohub,2013-02-07 22:48:00,
2013-02-07 16:53:00,26.2,15.8,30.11,NW,315,4.0,6.0,64,0.00,,,0.00,meteohub,2013-02-07 22:53:00,
2013-02-07 16:58:00,26.2,15.8,30.11,NNE,23,6.0,6.0,64,0.00,,,0.00,meteohub,2013-02-07 22:58:00,
2013-02-07 17:03:00,26.2,15.8,30.11,North,0,8.0,8.0,64,0.00,,,0.00,meteohub,2013-02-07 23:03:00,
2013-02-07 17:08:00,26.2,15.4,30.12,NW,315,7.0,8.0,63,0.00,,,0.00,meteohub,2013-02-07 23:08:00,
2013-02-07 17:13:00,26.2,15.4,30.12,North,0,4.0,8.0,63,0.00,,,0.00,meteohub,2013-02-07 23:13:00,
2013-02-07 17:18:00,26.2,15.8,30.12,North,0,4.0,8.0,64,0.00,,,0.00,meteohub,2013-02-07 23:18:00,
2013-02-07 17:23:00,26.2,15.8,30.12,NW,315,3.0,8.0,64,0.00,,,0.00,meteohub,2013-02-07 23:23:00,
2013-02-07 17:28:00,26.2,15.8,30.12,North,0,10.0,10.0,64,0.00,,,0.00,meteohub,2013-02-07 23:28:00,
2013-02-07 17:33:00,26.2,15.8,30.12,North,0,4.0,10.0,64,0.00,,,0.00,meteohub,2013-02-07 23:33:00,
2013-02-07 17:38:00,26.2,15.8,30.13,NNW,338,4.0,10.0,64,0.00,,,0.00,meteohub,2013-02-07 23:38:00,
2013-02-07 17:43:00,26.2,15.8,30.13,SW,225,3.0,10.0,64,0.00,,,0.00,meteohub,2013-02-07 23:43:00,
2013-02-07 17:48:00,26.1,15.6,30.13,NNW,338,8.0,8.0,64,0.00,,,0.00,meteohub,2013-02-07 23:48:00,
2013-02-07 17:53:00,26.1,15.6,30.12,North,0,10.0,10.0,64,0.00,,,0.00,meteohub,2013-02-07 23:53:00,
2013-02-07 17:58:00,26.1,15.6,30.13,North,0,8.0,10.0,64,0.00,,,0.00,meteohub,2013-02-07 23:58:00,
2013-02-07 18:03:00,26.1,15.6,30.14,East,90,6.0,14.0,64,0.00,,,0.00,meteohub,2013-02-08 00:03:00,
2013-02-07 18:08:00,25.9,15.4,30.14,North,0,7.0,14.0,64,0.00,,,0.00,meteohub,2013-02-08 00:08:00,
2013-02-07 18:13:00,25.9,15.4,30.14,North,0,7.0,12.0,64,0.00,,,0.00,meteohub,2013-02-08 00:13:00,
2013-02-07 18:18:00,25.9,15.4,30.14,North,0,8.0,11.0,64,0.00,,,0.00,meteohub,2013-02-08 00:18:00,
2013-02-07 18:23:00,25.9,15.4,30.14,NW,315,5.0,11.0,64,0.00,,,0.00,meteohub,2013-02-08 00:23:00,
2013-02-07 18:28:00,25.9,15.4,30.14,NE,45,6.0,11.0,64,0.00,,,0.00,meteohub,2013-02-08 00:28:00,
2013-02-07 18:33:00,25.7,15.3,30.14,NNW,338,8.0,8.0,64,0.00,,,0.00,meteohub,2013-02-08 00:33:00,
2013-02-07 18:38:00,25.7,15.3,30.14,NW,315,8.0,8.0,64,0.00,,,0.00,meteohub,2013-02-08 00:38:00,
2013-02-07 18:43:00,25.7,15.3,30.15,North,0,11.0,11.0,64,0.00,,,0.00,meteohub,2013-02-08 00:43:00,
2013-02-07 18:48:00,25.7,14.9,30.15,North,0,8.0,11.0,63,0.00,,,0.00,meteohub,2013-02-08 00:48:00,
2013-02-07 18:53:00,25.7,14.9,30.15,North,0,8.0,11.0,63,0.00,,,0.00,meteohub,2013-02-08 00:53:00,
2013-02-07 18:58:00,25.7,14.9,30.16,NNW,338,8.0,11.0,63,0.00,,,0.00,meteohub,2013-02-08 00:58:00,
2013-02-07 19:03:00,25.7,14.9,30.16,NNW,338,8.0,11.0,63,0.00,,,0.00,meteohub,2013-02-08 01:03:00,
2013-02-07 19:08:00,25.7,14.9,30.16,North,0,8.0,9.0,63,0.00,,,0.00,meteohub,2013-02-08 01:08:00,
2013-02-07 19:13:00,25.7,14.9,30.16,North,0,7.0,8.0,63,0.00,,,0.00,meteohub,2013-02-08 01:13:00,
2013-02-07 19:18:00,25.7,14.9,30.16,North,0,4.0,8.0,63,0.00,,,0.00,meteohub,2013-02-08 01:18:00,
2013-02-07 19:23:00,25.7,15.3,30.17,North,0,5.0,8.0,64,0.00,,,0.00,meteohub,2013-02-08 01:23:00,
2013-02-07 19:28:00,25.7,15.3,30.17,NE,45,4.0,8.0,64,0.00,,,0.00,meteohub,2013-02-08 01:28:00,
2013-02-07 19:33:00,25.7,15.3,30.16,East,90,5.0,7.0,64,0.00,,,0.00,meteohub,2013-02-08 01:33:00,
2013-02-07 19:38:00,25.7,15.3,30.17,NW,315,5.0,7.0,64,0.00,,,0.00,meteohub,2013-02-08 01:38:00,
2013-02-07 19:43:00,25.7,15.3,30.17,North,0,6.0,6.0,64,0.00,,,0.00,meteohub,2013-02-08 01:43:00,
2013-02-07 19:48:00,25.7,15.3,30.17,NW,315,4.0,7.0,64,0.00,,,0.00,meteohub,2013-02-08 01:48:00,
2013-02-07 19:53:00,25.7,15.3,30.17,North,0,4.0,7.0,64,0.00,,,0.00,meteohub,2013-02-08 01:53:00,
2013-02-07 19:58:00,25.5,15.1,30.17,NW,315,4.0,7.0,64,0.00,,,0.00,meteohub,2013-02-08 01:58:00,
2013-02-07 20:04:00,25.5,15.1,30.17,NNW,338,4.0,6.0,64,0.00,,,0.00,meteohub,2013-02-08 02:04:00,
2013-02-07 20:09:00,25.7,15.3,30.17,NW,315,5.0,7.0,64,0.00,,,0.00,meteohub,2013-02-08 02:09:00,
2013-02-07 20:14:00,25.7,15.3,30.17,WNW,293,5.0,7.0,64,0.00,,,0.00,meteohub,2013-02-08 02:14:00,
2013-02-07 20:19:00,25.7,15.3,30.17,North,0,4.0,7.0,64,0.00,,,0.00,meteohub,2013-02-08 02:19:00,
2013-02-07 20:24:00,25.7,15.3,30.17,North,0,5.0,5.0,64,0.00,,,0.00,meteohub,2013-02-08 02:24:00,
2013-02-07 20:29:00,25.7,15.3,30.17,North,0,7.0,7.0,64,0.00,,,0.00,meteohub,2013-02-08 02:29:00,
2013-02-07 20:34:00,25.5,15.1,30.18,NE,45,3.0,11.0,64,0.00,,,0.00,meteohub,2013-02-08 02:34:00,
2013-02-07 20:39:00,25.5,15.1,30.18,NNW,338,7.0,11.0,64,0.00,,,0.00,meteohub,2013-02-08 02:39:00,
2013-02-07 20:44:00,25.5,15.1,30.18,North,0,5.0,9.0,64,0.00,,,0.00,meteohub,2013-02-08 02:44:00,
2013-02-07 20:49:00,25.5,15.4,30.18,North,0,4.0,9.0,65,0.00,,,0.00,meteohub,2013-02-08 02:49:00,
2013-02-07 20:54:00,25.5,15.4,30.18,NNE,23,8.0,10.0,65,0.00,,,0.00,meteohub,2013-02-08 02:54:00,
2013-02-07 20:59:00,25.3,15.3,30.18,NE,45,6.0,10.0,65,0.00,,,0.00,meteohub,2013-02-08 02:59:00,
2013-02-07 21:04:00,25.3,15.3,30.18,NE,45,4.0,10.0,65,0.00,,,0.00,meteohub,2013-02-08 03:04:00,
2013-02-07 21:09:00,25.3,15.3,30.18,North,0,2.0,10.0,65,0.00,,,0.00,meteohub,2013-02-08 03:09:00,
2013-02-07 21:14:00,25.3,15.3,30.19,NE,45,8.0,8.0,65,0.00,,,0.00,meteohub,2013-02-08 03:14:00,
2013-02-07 21:19:00,25.3,15.3,30.19,SW,225,5.0,8.0,65,0.00,,,0.00,meteohub,2013-02-08 03:19:00,
2013-02-07 21:24:00,25.3,15.3,30.19,North,0,4.0,8.0,65,0.00,,,0.00,meteohub,2013-02-08 03:24:00,
2013-02-07 21:29:00,25.3,15.3,30.19,North,0,4.0,8.0,65,0.00,,,0.00,meteohub,2013-02-08 03:29:00,
2013-02-07 21:34:00,25.3,15.3,30.19,North,0,4.0,7.0,65,0.00,,,0.00,meteohub,2013-02-08 03:34:00,
2013-02-07 21:39:00,25.3,15.3,30.20,North,0,4.0,5.0,65,0.00,,,0.00,meteohub,2013-02-08 03:39:00,
2013-02-07 21:44:00,25.3,15.6,30.19,North,0,4.0,4.0,66,0.00,,,0.00,meteohub,2013-02-08 03:44:00,
2013-02-07 21:49:00,25.3,15.6,30.20,North,0,4.0,4.0,66,0.00,,,0.00,meteohub,2013-02-08 03:49:00,
2013-02-07 21:54:00,25.3,15.6,30.20,North,0,4.0,4.0,66,0.00,,,0.00,meteohub,2013-02-08 03:54:00,
2013-02-07 22:15:00,25.2,16.2,30.20,North,0,4.0,-999.0,68,0.00,,,0.00,meteohub,2013-02-08 04:15:00,
2013-02-07 22:20:00,25.0,16.0,30.20,NNW,338,4.0,4.0,68,0.00,,,0.00,meteohub,2013-02-08 04:20:00,
2013-02-07 22:25:00,25.0,16.0,30.20,NNW,338,4.0,4.0,68,0.00,,,0.00,meteohub,2013-02-08 04:25:00,
2013-02-07 22:30:00,25.0,16.0,30.20,NNW,338,4.0,4.0,68,0.00,,,0.00,meteohub,2013-02-08 04:30:00,
2013-02-07 22:36:00,25.0,16.3,30.20,NE,45,8.0,8.0,69,0.00,,,0.00,meteohub,2013-02-08 04:36:00,
2013-02-07 22:41:00,25.0,16.3,30.21,NE,45,8.0,8.0,69,0.00,,,0.00,meteohub,2013-02-08 04:41:00,
2013-02-07 22:46:00,24.8,16.2,30.21,NW,315,4.0,8.0,69,0.00,,,0.00,meteohub,2013-02-08 04:46:00,
2013-02-07 22:51:00,24.8,16.2,30.21,North,0,3.0,8.0,69,0.00,,,0.00,meteohub,2013-02-08 04:51:00,
2013-02-07 22:56:00,24.8,16.2,30.21,North,0,5.0,9.0,69,0.00,,,0.00,meteohub,2013-02-08 04:56:00,
2013-02-07 23:00:00,24.6,16.2,30.21,NW,315,4.0,9.0,70,0.00,,,0.00,meteohub,2013-02-08 05:00:00,
2013-02-07 23:01:00,24.6,16.2,30.21,NNW,338,4.0,9.0,70,0.00,,,0.00,meteohub,2013-02-08 05:01:00,
2013-02-07 23:06:00,24.6,16.5,30.22,NNE,23,5.0,9.0,71,0.00,,,0.00,meteohub,2013-02-08 05:06:00,
2013-02-07 23:11:00,24.6,16.5,30.21,North,0,4.0,6.0,71,0.00,,,0.00,meteohub,2013-02-08 05:11:00,
2013-02-07 23:17:00,24.6,16.5,30.22,North,0,3.0,5.0,71,0.00,,,0.00,meteohub,2013-02-08 05:17:00,
2013-02-07 23:22:00,24.4,16.3,30.21,North,0,6.0,6.0,71,0.00,,,0.00,meteohub,2013-02-08 05:22:00,
2013-02-07 23:27:00,24.4,16.3,30.22,NW,315,4.0,6.0,71,0.00,,,0.00,meteohub,2013-02-08 05:27:00,
2013-02-07 23:32:00,24.4,16.3,30.21,North,0,6.0,6.0,71,0.00,,,0.00,meteohub,2013-02-08 05:32:00,
2013-02-07 23:37:00,24.4,16.3,30.21,NNE,23,4.0,7.0,71,0.00,,,0.00,meteohub,2013-02-08 05:37:00,
2013-02-07 23:42:00,24.4,16.3,30.21,North,0,4.0,7.0,71,0.00,,,0.00,meteohub,2013-02-08 05:42:00,
2013-02-07 23:47:00,24.3,16.2,30.21,NW,315,4.0,7.0,71,0.00,,,0.00,meteohub,2013-02-08 05:47:00,
2013-02-07 23:52:00,24.3,16.2,30.21,NE,45,4.0,7.0,71,0.00,,,0.00,meteohub,2013-02-08 05:52:00,
2013-02-07 23:57:00,24.3,16.2,30.21,North,0,5.0,6.0,71,0.00,,,0.00,meteohub,2013-02-08 05:57:00,